Regional Weather Roundup
Issued by NWS Newport/Morehead, NC

Current Version | Previous Version | Graphics & Text | Print | Product List | Glossary Off
Versions: 1 2 3 4 5 6 7 8 9 10 11 12 13 14 15 16 17 18 19 20 21 22 23 24 25 26 27 28 29 30 31 32 33 34 35 36 37 38 39 40 41 42 43 44 45 46 47 48 49 50

000
ASUS42 KMHX 130810
RWRMHX
WEATHER ROUNDUP FOR EASTERN NORTH CAROLINA
NATIONAL WEATHER SERVICE NEWPORT/MOREHEAD CITY NC
400 AM EDT SUN JUL 13 2014

NOTE: "FAIR" INDICATES FEW OR NO CLOUDS BELOW 12,000 FEET
WITH NO SIGNIFICANT WEATHER AND/OR OBSTRUCTIONS TO VISIBILITY

NCZ015>017-031-032-045>047-102-103-130900-
NORTH COAST

CITY           SKY/WX    TMP DP  RH WIND       PRES   REMARKS
EDENTON        CLEAR     70  69  97 CALM      30.14S
ELIZABETH CITY CLEAR     68  66  94 CALM      30.14S FOG
KITTY HAWK     MOSUNNY   71  70  96 CALM      30.14S FOG
MANTEO         NOT AVBL

$$

NCZ045>047-081-094-103-104-130900-
CENTRAL COAST

CITY           SKY/WX    TMP DP  RH WIND       PRES   REMARKS
FRISCO         CLEAR     70  68  93 SW3       30.14S
SWANQUARTER      N/A     70 N/A N/A VRB1      30.09S

$$

NCZ095-097-098-100-101-130900-
SOUTHERN COAST

CITY           SKY/WX    TMP DP  RH WIND       PRES   REMARKS
BEAUFORT       CLEAR     73  71  93 CALM      30.13F
CEDAR ISLAND     N/A     73 N/A N/A CALM      30.18S
JACKSONVILLE   CLEAR     72  71  97 NW3       30.13F
NEWPORT        NOT AVBL
PINEY ISLAND   SUNNY     76  74  93 CALM      30.13F
WILMINGTON       N/A     74  32  21 MISG      30.13S


$$

NCZ011>013-027>030-043-044-078>080-089-090>093-098-130900-
COASTAL PLAIN

CITY           SKY/WX    TMP DP  RH WIND       PRES   REMARKS
AHOSKIE          N/A     69  68  96 CALM      30.14S VSB 3/4
CLINTON        CLEAR     71  71 100 CALM      30.14S
ELIZABETHTOWN  CLEAR     71  71 100 CALM      30.14S
GOLDSBORO      NOT AVBL
GREENVILLE     CLEAR     72  70  94 CALM      30.15S FOG
HAVELOCK       PTCLDY    70  67  90 CALM      30.14F
KENANSVILLE    CLEAR     68  67  96 CALM      30.15S
KINSTON          N/A     70  69  98 CALM      30.15R FOG
NEW BERN       PTCLDY    71  68  90 CALM      30.15S
RICHLANDS      MOCLDY    68  64  88 CALM      30.14S VSB 3/4
ROANOKE RAPIDS NOT AVBL
ROCKY MOUNT    FOG       70  69  97 CALM      30.14R VSB 3/4
WASHINGTON     CLEAR     69  68  97 CALM      30.15S
WHITEVILLE     CLEAR     71  69  95 CALM      30.13S

$$

AMZ130-135-150-152-154-156-158-170-250-252-270-ANZ085-086-088-633-658-670-130900-
MARINE OBSERVATIONS

STATION/POSITION TIME  TEMP    WIND        PRES    WAVE   SWELL
                       AIR SEA DIR/SP/G            HT/PER HT/PER
                 (UTC) (F)     (DEG/KT/KT) (MB)    (FT/S) (FT/S)
CHESAPEAKE LIGHT NOT AVBL
BUOY 44014       0800   74 75  150/  4/  4 1020.1    2/ 8   2/ 8
DUCK             0800   73 75  170/  4/  5 1019.9
2E DUCK          0800                        N/A     1/ 6
OREGON INLET     0800   72 78   70/  2/  2 1020.6
BUOY 44095       0800      74                N/A     2/ 7
HATTERAS CG      0800   76 82  220/  3/  4 1020.8
DIAMOND BUOY     0800          VRB  4/  6  1020.5    2/ 7   2/ 7
17S OCRACOKE INL NOT AVBL
CAPE LOOKOUT     0700   79     220/  4/  5 1020.4
BEAUFORT LAB     0800   78 82  220/  2/  3 1019.6
30 SE NEW RIVER  0800   80 82  210/  8/ 10 1020.4    2/ 7   2/ 7
5 SE WRIGHTSVILL 0700   77 82  210/ 10/ 10 1020.7
FRYING PAN BUOY  NOT AVBL
BUOY 41001       NOT AVBL
BUOY 41002       0703   80 83  220/  6/  8 1021.1    2/ 8   2/ 8
BUOY 41004       0800   81 82  140/  8/ 10 1019.1    2/ 7   2/ 7

$$



USA.gov is the U.S. government's official web portal to all federal, state and local government web resources and services.